Pittsfield, MA

8:14 AM EST on December 15, 2019 (GMT -0500)
Pittsfield Municipal

Weather History for KPSF - November, 2019

Change the Weather History Date:

Sunday, November 17, 2019

  Actual Average Record
Temperature  
Mean Temperature 24 °F 38 °F  
Max Temperature 34 °F 46 °F 65 °F (1926)
Min Temperature 15 °F 29 °F 8 °F (1933)
Degree Days  
Heating Degree Days 40 28  
Month to date heating degree days 539 425  
Since 1 July heating degree days 1142 1261  
Cooling Degree Days 0 0  
Month to date cooling degree days 0 0  
Year to date cooling degree days 416 290  
Moisture  
Dew Point 16 °F    
Average Humidity 60    
Maximum Humidity 73    
Minimum Humidity 45    
Precipitation  
Precipitation 0.00 in 0.13 in 1.11 in (2002)
Month to date precipitation 1.16 2.15  
Year to date precipitation 40.72 40.60  
Sea Level Pressure  
Sea Level Pressure 30.31 in    
Wind  
Wind Speed 3 mph ()    
Max Wind Speed 13 mph    
Max Gust Speed 21 mph    
Visibility 10.0 miles    
Events      
T = Trace of Precipitation, MM = Missing Value Source: Averaged Metar Reports

Daily Weather History Graph

Daily Weather History Graph

Search for Another Location

Airport or City:

Astronomy

Nov. 17, 2019 Rise Set
Actual Time 6:46 AM EST 4:29 PM EST
Civil Twilight 6:15 AM EST 4:59 PM EST
Nautical Twilight 5:41 AM EST 5:33 PM EST
Astronomical Twilight 5:08 AM EST 6:07 PM EST
Moon 9:01 PM EST (11/17) 11:31 AM EST (11/17)
Length of Visible Light 10h 43m
Length of Day
9h 43m
Waning Gibbous, 73% of the Moon is Illuminated
Nov 17
Waning Gibbous
Nov 19
Last Quarter
Nov 26
New
Dec 4
First Quarter
Dec 12
Full

Hourly Weather History & Observations

Time (EST) Temp. Windchill Dew Point Humidity Pressure Visibility Wind Dir Wind Speed Gust Speed Precip Events Conditions
12:54 AM 18.0 °F - 3.0 °F 52% 30.45 in 10.0 mi Calm Calm - N/A   Clear
1:54 AM 18.0 °F - 1.9 °F 50% 30.45 in 10.0 mi Calm Calm - N/A   Clear
2:54 AM 17.1 °F - 1.9 °F 52% 30.45 in 10.0 mi Calm Calm - N/A   Clear
3:54 AM 18.0 °F - -0.0 °F 45% 30.44 in 10.0 mi Calm Calm - N/A   Clear
4:54 AM 16.0 °F - 3.0 °F 57% 30.45 in 10.0 mi Calm Calm - N/A   Clear
5:54 AM 16.0 °F - 3.0 °F 57% 30.44 in 10.0 mi Calm Calm - N/A   Clear
6:54 AM 17.1 °F - 3.0 °F 54% 30.45 in 10.0 mi Calm Calm - N/A   Clear
7:54 AM 21.9 °F - 9.0 °F 58% 30.44 in 10.0 mi Calm Calm - N/A   Clear
8:54 AM 27.0 °F 20.5 °F 12.0 °F 53% 30.43 in 10.0 mi NE 5.8 mph - N/A   Mostly Cloudy
9:54 AM 30.9 °F 24.3 °F 15.1 °F 52% 30.44 in 10.0 mi SSE 6.9 mph - N/A   Partly Cloudy
10:14 AM 30.9 °F 22.8 °F 17.1 °F 57% 30.38 in 10.0 mi East 9.2 mph - N/A   Mostly Cloudy
10:40 AM 33.1 °F 26.1 °F 17.1 °F 52% 30.36 in 10.0 mi ESE 8.1 mph - N/A   Scattered Clouds
10:54 AM 32.0 °F 24.8 °F 17.1 °F 54% 30.40 in 10.0 mi East 8.1 mph 18.4 mph N/A   Partly Cloudy
11:45 AM 32.0 °F 24.8 °F 19.0 °F 59% 30.32 in 10.0 mi ESE 8.1 mph 16.1 mph N/A   Mostly Cloudy
11:54 AM 32.0 °F 24.8 °F 19.9 °F 61% 30.37 in 10.0 mi ESE 8.1 mph - N/A   Overcast
12:54 PM 33.1 °F 27.7 °F 21.0 °F 61% 30.35 in 10.0 mi Variable 5.8 mph - N/A   Overcast
1:54 PM 33.1 °F 27.7 °F 21.0 °F 61% 30.32 in 10.0 mi ENE 5.8 mph - N/A   Overcast
2:54 PM 33.1 °F 27.7 °F 21.0 °F 61% 30.30 in 10.0 mi East 5.8 mph - N/A   Overcast
3:54 PM 33.1 °F 28.7 °F 21.0 °F 61% 30.27 in 10.0 mi East 4.6 mph - N/A   Overcast
4:54 PM 32.0 °F 26.4 °F 21.0 °F 64% 30.26 in 10.0 mi ENE 5.8 mph - N/A   Overcast
5:54 PM 32.0 °F 28.7 °F 21.9 °F 66% 30.24 in 10.0 mi ENE 3.5 mph - N/A   Overcast
6:54 PM 33.1 °F 27.7 °F 21.9 °F 64% 30.22 in 10.0 mi ENE 5.8 mph - N/A   Overcast
7:54 PM 33.1 °F 27.7 °F 23.0 °F 66% 30.19 in 10.0 mi ENE 5.8 mph - N/A   Overcast
8:54 PM 32.0 °F 26.4 °F 24.1 °F 73% 30.17 in 10.0 mi ENE 5.8 mph - N/A   Overcast
9:31 PM 32.0 °F 24.8 °F 24.1 °F 73% 30.12 in 10.0 mi NE 8.1 mph - N/A   Overcast
9:54 PM 32.0 °F 27.5 °F 24.1 °F 73% 30.14 in 10.0 mi NE 4.6 mph - N/A   Overcast
10:25 PM 32.0 °F 26.4 °F 24.1 °F 73% 30.09 in 10.0 mi NNE 5.8 mph - N/A   Overcast
10:54 PM 33.1 °F 26.1 °F 25.0 °F 72% 30.11 in 10.0 mi ENE 8.1 mph - N/A   Overcast
11:54 PM 33.1 °F 26.9 °F 25.0 °F 72% 30.08 in 10.0 mi NE 6.9 mph - N/A   Overcast